Tracking 27401 objects as of 3-Jun-2023
HD Live streaming from Space Station
objects crossing your sky now

MOS 1B (MOMO 1B)

Track MOS 1B (MOMO 1B) now!
10-day predictions
MOS 1B (MOMO 1B) is classified as:


NORAD ID: 20478
Int'l Code: 1990-013A
Perigee: 912.4 km
Apogee: 919.6 km
Inclination: 99.4 °
Period: 103.2 minutes
Semi major axis: 7286 km
RCS: 3.7354 m2 (large)
Launch date: February 7, 1990
Source: Japan (JPN)
Launch site: TANEGASHIMA SPACE CENTER (TNSTA)
Your satellite tracking list
Your tracking list is empty




NASA's NSSDC Master Catalog

Two Line Element Set (TLE):
1 20478U 90013A   23154.54962190 -.00000063  00000-0 -12022-4 0  9997
2 20478  99.3724 189.4149 0004911 331.7457  28.3437 13.95667298617229
Source of the keplerian elements: AFSPC